Location: Dayton
(39.7590°N, 84.1920°W)
Time: 04:47:40
(UTC-04:00)

Daily predictions for brighter satellites

Satellite Brightness Start Highest point End
(mag) Time Altitude Azimuth Time Altitude Azimuth Time Altitude Azimuth
ASTEX 1 3.3 00:07:35 10° N 00:12:25 82° NW 00:12:25 82° NW
Spot 4 4.2 00:13:29 55° W 00:13:29 55° W 00:18:16 10° NNW
Timation 1 Rocket 4.3 00:15:58 69° ESE 00:15:58 69° ESE 00:21:51 10° NNE
Cosmos 614 Rocket 4.3 00:11:31 10° NNW 00:16:24 52° WSW 00:16:24 52° WSW
Terra 2.8 00:16:52 37° WSW 00:17:00 37° W 00:21:25 10° NNW
Okean 1-7 Rocket 4.3 00:14:14 10° N 00:17:45 48° NNE 00:17:45 48° NNE
Meteor 1-13 Rocket 4.4 00:17:08 10° N 00:23:01 63° ENE 00:23:12 63° E
Okean 1 Rocket 3.8 00:24:31 52° NNE 00:24:31 52° NNE 00:27:56 10° N
BREEZE-M DEB (TANK) 4.3 00:22:00 10° WNW 00:26:27 27° W 00:26:27 27° W
Cosmos 1300 Rocket 4.3 00:29:21 53° NNW 00:29:21 53° NNW 00:32:51 10° N
Cosmos 2278 Rocket 4.3 00:27:20 10° WSW 00:31:49 24° NW 00:36:19 10° N
Meteor 1-11 Rocket 3.9 00:33:06 65° ENE 00:33:06 65° ENE 00:38:35 10° NNE
USA 234 4.3 00:27:03 10° NE 00:33:11 45° NNW 00:39:18 10° WSW
Cosmos 1025 Rocket 4.4 00:29:10 10° N 00:32:03 33° NE 00:32:03 33° NE
Cosmos 1000 Rocket 4.3 00:33:00 10° N 00:39:15 86° E 00:39:32 82° SE
Cosmos 1833 Rocket 2.8 00:33:43 10° NNW 00:39:00 66° W 00:39:00 66° W
Meteor 2-4 Rocket 4.3 00:38:00 10° N 00:42:48 46° ENE 00:42:48 46° ENE
Cosmos 1943 Rocket 4.5 00:52:36 11° ENE 00:52:36 11° ENE 00:53:12 10° ENE
Cosmos 2082 Rocket 3.0 00:46:33 10° NW 00:51:28 40° W 00:51:28 40° W
MOS 1-B Rocket 4.2 01:08:11 57° E 01:08:24 57° ENE 01:14:44 10° N
CZ-4B R/B 4.5 01:12:27 14° N 01:12:27 14° N 01:12:58 10° N
Meteor 2-15 Rocket 4.4 01:03:57 10° N 01:09:55 74° ENE 01:09:55 74° ENE
Cosmos 2285 Rocket 4.0 01:13:36 70° ENE 01:13:36 70° ENE 01:19:33 10° NNE
Meteor 1-19 Rocket 4.5 01:08:09 10° NNW 01:13:32 64° WNW 01:13:32 64° WNW
Meteor 2-14 Rocket 4.4 01:14:12 78° WNW 01:14:12 78° WNW 01:20:15 10° N
Cosmos 1821 Rocket 4.2 01:16:09 58° W 01:16:31 59° W 01:22:42 10° N
Cosmos 1605 Rocket 3.9 01:16:56 82° ENE 01:16:56 82° ENE 01:23:16 10° N
Meteor 1-23 Rocket 4.3 01:11:58 10° N 01:16:53 70° N 01:16:53 70° N
Meteor 2-15 4.4 01:13:01 10° N 01:18:53 77° WNW 01:18:53 77° WNW
USA 229 DEB 4.3 01:16:57 10° NW 01:23:13 43° WSW 01:23:13 43° WSW
USA 229 4.3 01:17:02 10° NW 01:23:20 43° WSW 01:23:20 43° WSW
Cosmos 2123 Rocket 4.1 01:26:35 10° NNW 01:32:36 65° W 01:32:36 65° W
SeaSat 1 4.2 01:33:33 22° ENE 01:34:30 24° NE 01:38:24 10° N
Cosmos 1934 Rocket 4.5 01:36:52 47° W 01:37:00 47° WNW 01:42:49 10° N
NOSS 3-1 (A) 4.0 01:34:45 10° NNW 01:42:25 81° NE 01:44:02 61° SE
Cosmos 2369 Rocket 2.4 01:43:16 67° N 01:43:16 67° N 01:48:11 10° NNE
ALOS 2 4.4 01:44:55 25° NW 01:44:55 25° NW 01:47:09 10° NNW
ISS 0.1 01:48:33 12° N 01:48:33 12° N 01:49:16 10° NNE
H-2A R/B 4.1 01:43:19 10° N 01:46:31 34° NW 01:46:31 34° NW
Lacrosse 5 rocket 3.7 02:02:22 20° NNE 02:02:22 20° NNE 02:03:41 10° NNE
ATLAS 2AS CENTAUR R/B 3.7 01:56:04 10° NNW 02:03:54 49° NE 02:08:36 23° ESE
Lacrosse 5 2.6 02:06:21 51° N 02:06:21 51° N 02:10:40 10° NE
CZ-2C R/B 3.0 02:02:26 10° N 02:06:52 58° NNW 02:06:52 58° NNW
Cosmos 1992 Rocket 4.5 02:10:48 56° NNW 02:10:48 56° NNW 02:15:07 10° NNE
NOSS 3-1 (C) 4.2 02:07:18 10° NW 02:14:47 56° WSW 02:14:47 56° WSW
CZ-2C R/B 3.5 02:19:47 54° NNW 02:19:47 54° NNW 02:23:40 10° NNW
Cosmos 1656 Rocket 4.2 02:33:31 49° E 02:33:31 49° E 02:38:28 10° NNE
Cosmos 1943 Rocket 2.3 02:34:07 71° NNW 02:34:07 71° NNW 02:39:16 10° NNE
Cosmos 2100 Rocket 4.3 02:37:13 54° W 02:37:23 54° W 02:43:39 10° N
Cosmos 2061 Rocket 4.3 02:40:23 56° W 02:40:37 56° W 02:46:57 10° N
Cosmos 2058 Rocket 4.2 02:47:43 41° NE 02:47:43 41° NE 02:51:01 10° NNE
Cosmos 44 Rocket 4.1 02:41:53 10° NNW 02:46:52 49° NE 02:47:24 47° ENE
Meteor 1-21 4.2 02:45:05 10° N 02:50:42 73° E 02:50:49 73° E
Cosmos 1802 Rocket 4.5 02:58:40 45° W 02:58:56 45° WNW 03:04:54 10° N
Cosmos 2233 Rocket 4.1 02:59:20 57° SE 03:00:11 62° E 03:06:13 10° NNE
Cosmos 1570 Rocket 4.4 03:00:19 55° E 03:00:19 55° E 03:05:27 10° NNE
Cosmos 1953 Rocket 4.4 02:57:12 10° N 03:00:15 45° NNW 03:00:15 45° NNW
Cosmos 2016 Rocket 4.3 03:01:30 51° W 03:01:43 51° W 03:07:40 10° N
Cosmos 1241 Rocket 4.4 02:58:00 10° NNW 03:04:30 84° WSW 03:05:27 67° SSE
Cosmos 2098 Rocket 4.0 03:05:21 68° SW 03:06:08 78° W 03:13:29 10° N
ERS-2 4.3 03:06:19 10° NE 03:08:37 22° ENE 03:08:37 22° ENE
SeaSat 1 3.4 03:13:20 35° WNW 03:13:20 35° WNW 03:16:31 10° NW
Cosmos 1726 Rocket 4.3 03:13:41 46° NNW 03:13:41 46° NNW 03:16:56 10° N
Cosmos 1818 4.5 03:12:07 36° WNW 03:12:51 38° NW 03:17:57 10° NNE
SL-08 R/B 3.8 03:12:33 53° E 03:12:57 54° ENE 03:17:31 10° N
BREEZE-M DEB (TANK) 3.6 03:07:25 10° WNW 03:19:09 64° NNE 03:22:11 14° ESE
Cosmos 1842 4.3 03:20:07 10° N 03:22:49 41° NNW 03:22:49 41° NNW
ISS 0.1 03:24:09 10° N 03:25:02 11° N 03:25:55 10° NNE
Cosmos 968 Rocket 4.5 03:20:16 10° NW 03:23:51 34° WNW 03:23:51 34° WNW
Cosmos 1758 Rocket 4.4 03:21:40 10° NNW 03:24:58 42° NW 03:24:58 42° NW
Cosmos 2369 Rocket 4.5 03:25:02 11° WNW 03:27:26 13° NW 03:30:04 10° NNW
Geosat 3.8 03:22:55 10° NNE 03:27:59 84° ESE 03:28:15 79° S
Meteor 2-9 Rocket 4.2 03:28:59 67° SW 03:29:45 79° W 03:35:37 10° N
Cosmos 2219 3.2 03:26:21 10° NNW 03:31:46 61° WSW 03:31:46 61° WSW
NOSS 3-3 (A) 4.0 03:31:06 57° WSW 03:32:27 77° NW 03:39:10 10° NNE
NOSS 3-3 (C) 4.0 03:31:12 57° SW 03:32:33 77° NW 03:39:16 10° NNE
ARIANE 5 R/B 3.9 03:29:00 10° NE 03:33:33 31° E 03:35:16 25° SE
Milstar 3 Cent rocket 4.0 03:39:47 18° SE 03:39:47 18° SE 03:43:00 10° ESE
Cosmos 44 3.7 03:34:51 10° NNW 03:40:01 64° NE 03:42:36 27° SE
Cosmos 1340 4.1 03:36:33 10° NNW 03:38:47 31° NW 03:38:47 31° NW
Tsikada Rocket 4.5 03:34:27 10° NNW 03:40:19 42° W 03:40:51 41° WSW
Cosmos 2227 Rocket 3.3 03:35:07 10° N 03:40:31 43° ENE 03:45:53 10° SE
Cosmos 2208 Rocket 3.9 03:40:15 65° WSW 03:40:42 69° WNW 03:45:56 10° NNE
CZ-2D R/B 3.7 03:36:05 10° NE 03:40:48 29° E 03:43:29 19° SE
Meteor 2-17 Rocket 4.4 03:39:51 55° SW 03:41:00 67° W 03:47:07 10° N
Spot 4 Rocket 4.5 03:37:04 10° NNE 03:42:08 55° E 03:43:25 43° SSE
SL-16 R/B 3.6 03:36:27 10° SE 03:42:10 42° ENE 03:47:55 10° N
IRS-1C 4.1 03:38:31 10° NNE 03:43:54 81° ESE 03:44:58 58° S
Lacrosse 5 4.3 03:46:21 10° WNW 03:49:35 17° NNW 03:52:49 10° NNE
Cosmos 2278 3.8 03:51:22 47° S 03:52:54 66° ESE 03:58:31 10° NNE
Cosmos 2369 4.0 03:51:18 42° SSE 03:52:57 57° ESE 03:58:31 10° NNE
IRS-1D 4.3 03:48:47 10° NNE 03:53:31 43° E 03:55:21 31° SSE
Cosmos 1666 4.3 03:55:17 24° NW 03:55:17 24° NW 03:57:35 10° NNW
ATLAS 2AS CENTAUR R/B 3.3 03:47:27 10° NW 03:54:49 41° WSW 03:55:57 39° SW
USA 161 3.0 03:57:20 38° NE 03:57:20 38° NE 03:59:30 10° N
Okean O Rocket 4.3 03:55:12 10° ENE 03:57:03 12° E 03:58:53 10° ESE
CBERS-1 4.1 03:52:03 10° N 03:57:08 62° WNW 03:58:00 53° WSW
Cosmos 405 Rocket 3.4 03:57:26 10° N 04:01:27 55° ENE 04:02:38 39° SE
Cosmos 2297 Rocket 3.2 03:57:13 10° NNW 04:02:39 46° ENE 04:08:02 10° SE
ATLAS CENTAUR R/B 3.0 04:03:58 27° SSE 04:05:37 34° ESE 04:10:08 10° NE
Cosmos 2228 4.4 04:12:56 25° WNW 04:12:56 25° WNW 04:16:24 10° NNW
GEOS 3 Rocket 3.5 04:10:26 10° SE 04:15:40 90° NE 04:20:53 10° NW
Cosmos 1943 Rocket 4.4 04:16:15 10° WNW 04:18:24 12° NW 04:20:34 10° NNW
Cosmos 220 Rocket 4.1 04:15:16 10° NNW 04:19:37 72° ENE 04:22:31 20° SSE
EO 1 Del DPAF 4.0 04:17:32 21° SE 04:19:52 53° ENE 04:23:40 10° N
SL-24 R/B 4.3 04:24:09 27° S 04:27:02 77° WSW 04:31:44 10° NNW
Cosmos 858 Rocket 4.5 04:24:54 10° NNW 04:30:11 85° ENE 04:35:25 10° SSE
Cosmos 1812 Rocket 4.2 04:29:59 35° WSW 04:30:44 38° WNW 04:34:56 10° N
Cosmos 2150 Rocket 3.9 04:26:53 10° NNW 04:32:09 84° WSW 04:36:56 12° SSE
SL-8 R/B 3.7 04:27:50 10° WNW 04:32:29 51° SW 04:37:06 10° SE
Resurs 1-4 Rocket 2.0 04:28:58 10° NNE 04:34:16 89° ESE 04:37:12 27° SSW
Cosmos 468 Rocket 3.9 04:32:14 35° SSW 04:34:29 77° WNW 04:39:41 10° NNE
Cosmos 1378 4.2 04:31:37 10° N 04:35:16 45° E 04:38:50 10° SSE
Cosmos 1464 Rocket 4.4 04:35:07 30° SW 04:37:54 48° WNW 04:43:59 10° N
Cosmos-2242 4.5 04:35:47 10° SSE 04:39:42 34° E 04:43:38 10° NNE
Cosmos 1707 2.9 04:37:26 10° NNW 04:41:15 51° W 04:42:16 39° SW
Cosmos 1441 Rocket 4.4 04:38:00 10° N 04:41:50 44° ENE 04:45:39 10° SSE
ERS-2 3.7 04:40:06 10° NNW 04:43:01 22° WNW 04:43:27 21° WNW
BREEZE-M DEB (TANK) 3.8 04:44:22 10° WNW 04:50:53 - SE 04:45:37 17° WNW
NOSS 2-1 (D) 3.6 04:49:20 32° WSW 04:50:56 56° NW 04:55:16 10° NNE
Cosmos 1898 Rocket 3.6 04:46:36 10° NNW 04:51:49 54° WSW 04:56:35 12° S
NOSS 2-1 (C) 3.6 04:50:37 31° WSW 04:52:16 56° NW 04:56:37 10° NNE
Okean 3 Rocket 4.0 04:51:09 10° NNW 04:55:19 42° W 04:57:17 26° SW
Meteor 2-5 Rocket 4.3 04:50:26 10° NNW 04:55:49 39° W 04:59:14 21° SSW
Cosmos 1092 Rocket 4.1 04:50:21 10° N 04:56:40 85° E 05:02:59 10° S
NOSS 7 (E) 4.5 04:56:36 29° SSW 04:58:14 74° ESE 05:01:38 10° NE
SME Rocket 4.3 04:55:33 21° SSW 04:58:44 44° W 05:05:47 10° NNW
BREEZE-M DEB 3.9 04:56:37 12° NW 04:58:47 75° NNE 05:02:02 10° ESE
BREEZE-M DEB (TANK) 3.9 04:56:36 10° WNW 04:59:05 30° N 05:02:49 10° ENE
BREEZE-M DEB (TANK) 3.9 04:55:47 14° W 04:59:52 36° NNW 05:02:21 10° NE
ISS -0.8 04:59:39 10° NNW 05:02:23 24° NNE 05:05:06 10° E
GPS 2-04 Rocket1 3.4 05:01:22 27° SSW 05:02:42 35° SSE 05:06:09 10° ESE
Cosmos 1656 3.8 05:02:20 21° SW 05:06:11 65° WNW 05:11:50 10° NNE
NOSS 2-1 (E) 4.1 05:05:12 22° WSW 05:07:23 43° NW 05:11:44 10° NNE
ASTRO E2 3.9 05:07:59 22° SSW 05:09:03 24° S 05:12:23 10° SE
Cosmos 841 Rocket 3.5 05:04:53 17° SSW 05:09:05 89° WNW 05:14:24 10° NNE
Cosmos 1937 Rocket 3.6 05:04:33 10° NNW 05:09:34 52° WSW 05:14:35 10° S
OAO 3 Rocket 4.4 05:09:20 20° SW 05:10:01 21° SSW 05:13:32 10° SSE
Cosmos 2082 4.3 05:05:50 10° NW 05:10:55 35° WSW 05:15:56 10° SSW
ARIANE 5 R/B 3.6 05:08:10 10° N 05:12:34 30° WNW 05:15:36 17° WSW
Cosmos 1697 Rocket 2.7 05:10:26 17° SSW 05:14:52 74° WNW 05:20:34 10° NNE
PSLV R/B 3.7 05:11:09 10° NNE 05:15:04 89° WNW 05:18:26 13° SSW
NOSS 3-4 (A) 3.8 05:10:40 10° NW 05:17:41 77° WSW 05:25:07 10° SSE
NOSS 3-4 (C) 3.8 05:10:46 10° NW 05:17:50 77° WSW 05:25:17 10° SSE
Cosmos 1763 Rocket 3.6 05:14:36 16° SSW 05:18:44 64° WNW 05:23:55 10° NNE
Cosmos 2142 Rocket 4.4 05:14:05 10° S 05:20:14 84° W 05:26:24 10° N
In-Cosmos 22 4.1 05:15:27 10° N 05:20:45 90° W 05:26:03 10° S
CZ-2D R/B 3.0 05:15:56 10° N 05:20:53 36° WNW 05:24:49 15° SW
Cosmos 1980 Rocket 2.3 05:15:59 11° SSW 05:21:26 77° ESE 05:27:06 10° NNE
Thor Agena Rocket 3.8 05:16:42 10° SSE 05:21:43 71° ENE 05:26:45 10° N
ARGOS Delta rocket 4.3 05:18:13 10° NNE 05:23:25 67° E 05:28:19 10° S
Cosmos 2227 Rocket 3.2 05:19:42 10° NW 05:24:17 26° WSW 05:28:52 10° SSW
Cosmos 1470 4.3 05:21:40 10° SSE 05:25:18 37° E 05:28:58 10° NNE
SL-16 R/B 3.3 05:21:04 12° SSW 05:25:52 30° W 05:31:12 10° NW
CZ-2D R/B 4.1 05:23:41 10° N 05:27:46 43° WNW 05:31:25 13° SW
Cosmos 2322 Rocket 3.7 05:25:43 10° SSE 05:30:44 34° ESE 05:35:45 10° NE
Cosmos 1766 4.5 05:29:22 15° SW 05:31:47 26° WNW 05:35:09 10° NNW
Okean O Rocket 1.8 05:29:27 10° N 05:33:45 56° WNW 05:38:03 10° SSW
Cosmos 1674 3.9 05:30:07 10° N 05:33:45 44° E 05:37:21 10° SSE
CZ-3 Stage 3 4.2 04:57:51 10° W 05:35:05 54° SSW 05:41:26 10° ESE
Cosmos 1758 3.6 05:32:18 10° SSW 05:36:14 51° W 05:40:10 10° N
Cosmos 2279 Rocket 4.1 05:33:55 10° S 05:40:11 86° E 05:46:28 10° N
ADEOS Rocket 4.2 05:34:01 10° NNE 05:40:11 48° E 05:46:58 10° S
Cosmos 1437 2.7 05:37:38 10° NNW 05:40:58 76° W 05:44:17 10° S
BREEZE-M DEB (TANK) 3.2 05:36:46 11° WSW 05:41:19 60° NNW 05:45:40 10° NE
Cosmos 1544 3.0 05:37:41 10° S 05:41:22 84° W 05:45:02 10° N
Cosmos 1500 Rocket 3.7 05:37:00 10° N 05:41:26 82° E 05:45:47 10° S
UNKNOWN OBJECT B 4.4 05:39:05 10° NNW 05:42:01 20° WNW 05:44:49 10° WSW
Cosmos 1655 Rocket 4.1 05:37:20 10° N 05:43:45 80° W 05:50:08 10° S
Cosmos 1953 2.9 05:40:01 10° SSW 05:43:48 40° WNW 05:47:39 10° N
ATLAS CENTAUR R/B 2.9 05:40:19 11° WSW 05:44:44 33° NW 05:49:16 10° NNE
Cosmos 1743 Rocket 3.6 05:40:47 10° NNW 05:45:04 60° W 05:49:20 10° S
Cosmos 2297 Rocket 3.3 05:41:56 10° NW 05:46:20 24° WSW 05:50:44 10° SSW
ADEOS II 2.8 05:45:42 10° NNE 05:50:52 56° E 05:56:01 10° S
Cosmos 2360 4.3 05:45:59 10° SSW 05:51:41 87° WNW 05:57:26 10° NNE
USA 81 4.2 05:48:08 10° SSW 05:53:19 57° W 05:58:33 10° N
Cosmos 540 Rocket 3.5 05:52:29 10° SSW 05:57:39 85° WNW 06:02:51 10° NNE
Meteor PRIRODA 4.2 05:57:00 10° NNE 06:00:38 60° E 06:04:15 10° S
SL-16 R/B 2.8 05:55:28 10° S 06:01:01 59° ESE 06:06:36 10° NNE
